STARLINK-4399 (53469 NORAD) Tracking and Keplerian Element Data

This shows tracking and keplerian element data for the satellite.

Feedback or suggestion? Click here.




ElementValue
Catalog53469
NameSTARLINK-4399
Epoch Orbit1548
Epoch Day325.04529394
Epoch Year2022
RAAN84.0874
Inclination97.6539
Eccentricity8.33E-05
Argument of Perigee309.8651
Mean Anonmoly50.25
Mean Motion15.01259726
Decay Rate2.102E-05
L11 53469U 22099E 22325.04529394 .00002102 00000+0 16823-3 0 9996
L22 53469 97.6539 84.0874 0000833 309.8651 50.2500 15.01259726 15483



Live tracking and technical data element details for STARLINK-4399 (NORAD 53469). STARLINK-4399 can be tracked NOW for your location showing map with azimuth and elevation plus other details from your city location.







IsCatalogInMostPopularTable: catalog: 53469, numindb: 6
Update: records affected: 1



GetName: 53469 STARLINK-4399

Hit Count: updated at: Thu, 08 Dec 2022 20:15:51 GMT